Location: Unspecified
(38.7273°N, 77.0677°W)
Time: 19:40:53
(UTC-04:00)

X-37B - Visible Passes

Search period start: 17 June 2021 00:00
Search period end: 27 June 2021 00:00
Orbit: 386 x 389 km, 45.0° (Epoch: 10 June)

Date Brightness Start Highest point End Pass type
(mag) Time Alt. Az. Time Alt. Az. Time Alt. Az.
17 Jun 3.0 02:21:11 23° NE 02:21:11 23° NE 02:22:46 10° NE visible
17 Jun 2.8 03:54:14 10° NW 03:56:56 25° N 03:59:39 10° ENE visible
18 Jun 2.8 02:57:25 21° NNW 02:58:23 25° N 03:01:06 10° NE visible
18 Jun 2.2 04:32:34 10° NW 04:35:33 35° NNE 04:38:30 10° E visible
19 Jun 3.4 02:01:26 18° NE 02:01:26 18° NE 02:02:39 10° NE visible
19 Jun 2.7 03:34:13 10° NW 03:37:02 28° N 03:39:50 10° ENE visible
19 Jun 0.6 05:10:45 10° WNW 05:13:56 90° N 05:17:06 10° ESE visible
20 Jun 2.8 02:37:56 24° NNW 02:38:29 25° N 02:41:11 10° ENE visible
20 Jun 1.4 04:12:25 10° WNW 04:15:32 53° NNE 04:18:38 10° E visible
21 Jun 3.8 01:42:29 11° NE 01:42:29 11° NE 01:42:38 10° NE visible
21 Jun 2.2 03:14:49 15° NW 03:17:05 36° NNE 03:20:02 10° E visible
21 Jun 0.8 04:50:43 10° WNW 04:53:47 47° SSW 04:56:50 10° SE visible
21 Jun 2.4 21:26:34 10° S 21:28:12 13° SE 21:28:32 13° SE visible
22 Jun 3.3 02:20:14 18° ENE 02:20:14 18° ENE 02:21:22 10° ENE visible
22 Jun 0.5 03:52:39 13° WNW 03:55:28 89° SSW 03:58:38 10° ESE visible
22 Jun 0.7 22:03:04 10° SW 22:06:09 49° SSE 22:08:47 13° ENE visible
22 Jun 2.9 23:39:54 10° W 23:41:14 21° WNW 23:41:14 21° WNW visible
23 Jun 3.3 02:59:41 14° E 02:59:41 14° E 03:00:11 10° E visible
23 Jun 1.7 04:32:13 18° WSW 04:33:34 24° SW 04:36:11 10° SSE visible
23 Jun 1.7 21:05:12 10° SSW 21:07:54 25° SE 21:10:35 10° E visible
23 Jun 1.4 22:41:17 10° W 22:44:24 51° NNW 22:47:14 12° NE visible
24 Jun 3.5 00:18:45 10° WNW 00:19:34 15° NW 00:19:34 15° NW visible
24 Jun 0.6 21:42:49 10° WSW 21:46:00 87° NNW 21:49:11 10° ENE visible
24 Jun 2.7 23:20:06 10° WNW 23:22:55 28° N 23:24:24 19° NE visible
25 Jun 2.3 22:21:27 10° W 22:24:24 35° NNW 22:27:21 10° NE visible
25 Jun 3.0 23:58:50 10° NW 00:01:00 24° NNW 00:01:00 24° NNW visible
26 Jun 1.5 21:22:50 10° W 21:25:56 51° NNW 21:29:03 10° ENE visible
26 Jun 2.8 23:00:17 10° WNW 23:03:00 25° N 23:05:06 14° NE visible
